Location: Barcelona
(41.3830°N, 2.1830°E)
Time: 00:32:28
(UTC+02:00)

ISS - Pass Details

Date: 17 July 2019
Orbit: 409 x 418 km, 51.6° (Epoch: 22 July)

Event Time Altitude Azimuth Distance (km) Brightness Sun altitude
Rises 22:12:22 0° 212° (SSW) 2,341 0.0 -8.6°
Reaches altitude 10° 22:14:34 10° 202° (SSW) 1,481 -1.1 -9.0°
Maximum altitude 22:17:35 33° 137° (SE) 724 -3.1 -9.4°
Drops below altitude 10° 22:20:37 10° 71° (ENE) 1,486 -1.3 -9.8°
Sets 22:22:50 0° 62° (ENE) 2,350 -0.2 -10.2°
